Location: American Medical Response
(33.3472°N, 96.5511°W)
Time: 10:10:57
(UTC+00:00)

H-2A R/B - Pass Details

Date: 12 July 2022
Orbit: 576 x 652 km, 98.5° (Epoch: 13 August)

Event Time Altitude Azimuth Distance (km) Brightness Sun altitude
Rises 03:54:16 0° 349° (N) 2,968 6.5 -23.1°
Reaches altitude 10° 03:57:26 10° 325° (NW) 2,059 5.8 -23.6°
Maximum altitude 03:59:46 14° 294° (WNW) 1,793 5.2 -23.9°
Drops below altitude 10° 04:02:06 10° 262° (W) 2,055 5.1 -24.2°
Sets 04:05:16 0° 238° (WSW) 2,958 5.6 -24.6°
